Location: Bodest
(46.3000°N, 22.5667°E)
Time: 08:51:48
(UTC+00:00)

Cosmos 1356 - Pass Details

Date: 16 October 2021
Orbit: 432 x 436 km, 81.1° (Epoch: 07 December)

Event Time Altitude Azimuth Distance (km) Brightness Sun altitude
Rises 16:14:00 0° 352° (N) 2,434 7.2 -6.4°
Reaches altitude 10° 16:16:06 10° 356° (N) 1,561 6.1 -6.7°
Maximum altitude 16:19:28 61° 77° (ENE) 504 3.3 -7.3°
Drops below altitude 10° 16:22:49 10° 159° (SSE) 1,549 6.0 -7.9°
Sets 16:24:52 0° 163° (SSE) 2,413 7.0 -8.3°
